| time (UTC) | temp C | wind direction | speed KPH | gust KPH | rain 1hr cm | rain 24hr cm | rain mn cm | humidity % | barometer mb |
| 20260901190009 | 13 | 190 | 4.8 | 25.7 | 0.00 | 0.00 | 0.00 | 70 | 1010.4 |
| 20260901184510 | 14 | 204 | 14.5 | 24.1 | 0.00 | 0.00 | 0.00 | 69 | 1010.1 |
| 20260901183010 | 15 | 226 | 14.5 | 25.7 | 0.00 | 0.00 | 0.00 | 69 | 1009.9 |
| 20260901181508 | 15 | 246 | 6.4 | 22.5 | 0.00 | 0.00 | 0.00 | 68 | 1009.7 |
| 20260901180011 | 16 | 235 | 12.9 | 24.1 | 0.00 | 0.00 | 0.00 | 65 | 1009.5 |
| 20260901174509 | 16 | 238 | 12.9 | 25.7 | 0.00 | 0.00 | 0.00 | 62 | 1009.4 |
| 20260901173009 | 17 | 246 | 8.0 | 25.7 | 0.00 | 0.00 | 0.00 | 60 | 1009.4 |
| 20260901171509 | 18 | 242 | 8.0 | 19.3 | 0.00 | 0.00 | 0.00 | 57 | 1009.2 |
| 20260901170009 | 18 | 238 | 12.9 | 24.1 | 0.00 | 0.00 | 0.00 | 57 | 1009.1 |
| 20260901164509 | 18 | 265 | 16.1 | 27.4 | 0.00 | 0.00 | 0.00 | 55 | 1009.1 |
| 20260901163009 | 18 | 276 | 17.7 | 33.8 | 0.00 | 0.00 | 0.00 | 55 | 1009.0 |
| 20260901161510 | 18 | 226 | 6.4 | 30.6 | 0.00 | 0.00 | 0.00 | 58 | 1008.9 |
| 20260901160014 | 19 | 249 | 14.5 | 37.0 | 0.00 | 0.00 | 0.00 | 56 | 1008.9 |
| 20260901154510 | 19 | 80 | 16.1 | 32.2 | 0.00 | 0.00 | 0.00 | 56 | 1008.6 |
| 20260901153019 | 20 | 215 | 17.7 | 33.8 | 0.00 | 0.00 | 0.00 | 55 | 1008.6 |
| 20260901151509 | 20 | 262 | 19.3 | 30.6 | 0.00 | 0.00 | 0.00 | 55 | 1008.7 |
| 20260901150017 | 20 | 203 | 16.1 | 29.0 | 0.00 | 0.00 | 0.00 | 52 | 1008.4 |
| 20260901144514 | 21 | 245 | 19.3 | 32.2 | 0.00 | 0.00 | 0.00 | 50 | 1008.5 |
| 20260901143011 | 21 | 259 | 16.1 | 32.2 | 0.00 | 0.00 | 0.00 | 48 | 1008.3 |
| 20260901141509 | 21 | 248 | 12.9 | 22.5 | 0.00 | 0.00 | 0.00 | 47 | 1008.1 |
| 20260901140009 | 21 | 253 | 9.7 | 22.5 | 0.00 | 0.00 | 0.00 | 42 | 1008.2 |
| 20260901134510 | 21 | 236 | 14.5 | 27.4 | 0.00 | 0.00 | 0.00 | 36 | 1008.3 |
| 20260901133009 | 21 | 244 | 12.9 | 27.4 | 0.00 | 0.00 | 0.00 | 34 | 1008.1 |
| 20260901131512 | 22 | 205 | 9.7 | 24.1 | 0.00 | 0.00 | 0.00 | 33 | 1007.9 |
| 20260901130010 | 22 | 239 | 9.7 | 22.5 | 0.00 | 0.00 | 0.00 | 31 | 1007.9 |
| 20260901124526 | 22 | 245 | 8.0 | 22.5 | 0.00 | 0.00 | 0.00 | 31 | 1007.8 |
| 20260901123010 | 22 | 239 | 9.7 | 20.9 | 0.00 | 0.00 | 0.00 | 31 | 1007.8 |
| 20260901121511 | 22 | 219 | 11.3 | 19.3 | 0.00 | 0.00 | 0.00 | 29 | 1007.8 |
| 20260901120010 | 21 | 188 | 14.5 | 20.9 | 0.00 | 0.00 | 0.00 | 32 | 1007.8 |
| 20260901114509 | 20 | 163 | 3.2 | 19.3 | 0.00 | 0.00 | 0.00 | 56 | 1007.8 |
| 20260901113010 | 20 | 159 | 12.9 | 22.5 | 0.00 | 0.00 | 0.00 | 51 | 1007.7 |
| 20260901111510 | 21 | 254 | 11.3 | 27.4 | 0.00 | 0.00 | 0.00 | 36 | 1007.7 |
| 20260901110009 | 20 | 182 | 6.4 | 14.5 | 0.00 | 0.00 | 0.00 | 56 | 1007.8 |
| 20260901103010 | 20 | 180 | 8.0 | 14.5 | 0.00 | 0.00 | 0.00 | 50 | 1007.7 |
| 20260901101509 | 18 | 216 | 6.4 | 14.5 | 0.00 | 0.00 | 0.00 | 57 | 1007.7 |
| 20260901100010 | 18 | 188 | 4.8 | 12.9 | 0.00 | 0.00 | 0.00 | 62 | 1007.8 |
| 20260901094516 | 17 | 157 | 8.0 | 11.3 | 0.00 | 0.00 | 0.00 | 63 | 1007.8 |
| 20260901093008 | 18 | 214 | 1.6 | 8.0 | 0.00 | 0.00 | 0.00 | 59 | 1007.8 |
| 20260901091510 | 19 | 228 | 3.2 | 6.4 | 0.00 | 0.00 | 0.00 | 56 | 1007.9 |
| 20260901090009 | 19 | 286 | 1.6 | 6.4 | 0.00 | 0.00 | 0.00 | 56 | 1007.8 |
| 20260901084509 | 18 | 346 | 1.6 | 6.4 | 0.00 | 0.00 | 0.00 | 60 | 1007.7 |
| 20260901081509 | 17 | 344 | 0.0 | 4.8 | 0.00 | 0.00 | 0.00 | 64 | 1007.8 |
| 20260901080015 | 16 | 342 | 1.6 | 6.4 | 0.00 | 0.00 | 0.00 | 69 | 1007.7 |
| 20260901074509 | 16 | 342 | 1.6 | 8.0 | 0.00 | 0.00 | 0.00 | 67 | 1007.7 |
| 20260901073010 | 16 | 341 | 0.0 | 4.8 | 0.00 | 0.00 | 0.00 | 72 | 1007.8 |
| 20260901071511 | 14 | 340 | 0.0 | 1.6 | 0.00 | 0.00 | 0.00 | 77 | 1007.7 |
| 20260901070012 | 12 | 341 | 0.0 | 1.6 | 0.00 | 0.00 | 0.00 | 86 | 1007.6 |
| 20260901063024 | 11 | 341 | 1.6 | 6.4 | 0.00 | 0.00 | 0.00 | 93 | 1007.4 |
| 20260901054509 | 8 | 340 | 1.6 | 4.8 | 0.00 | 0.00 | 0.00 | 96 | 1007.2 |
| 20260901051510 | 8 | 340 | 0.0 | 6.4 | 0.00 | 0.00 | 0.00 | 96 | 1007.2 |
| 20260901044510 | 8 | 340 | 1.6 | 8.0 | 0.00 | 0.00 | 0.00 | 96 | 1006.9 |
| 20260901041508 | 8 | 360 | 1.6 | 4.8 | 0.00 | 0.00 | 0.00 | 96 | 1006.8 |
| 20260901034523 | 8 | 360 | 1.6 | 6.4 | 0.00 | 0.00 | 0.00 | 96 | 1006.6 |
| 20260901033010 | 8 | 360 | 3.2 | 6.4 | 0.00 | 0.00 | 0.00 | 96 | 1006.5 |
| 20260901030012 | 8 | 5 | 3.2 | 8.0 | 0.00 | 0.00 | 0.00 | 95 | 1006.3 |
| 20260901024510 | 8 | 13 | 1.6 | 6.4 | 0.00 | 0.00 | 0.00 | 95 | 1006.4 |
| 20260901023009 | 8 | 13 | 0.0 | 3.2 | 0.00 | 0.00 | 0.00 | 95 | 1006.4 |
| 20260901021510 | 8 | 13 | 1.6 | 6.4 | 0.00 | 0.00 | 0.00 | 95 | 1006.2 |
| 20260901014509 | 9 | 15 | 3.2 | 6.4 | 0.00 | 0.00 | 0.00 | 94 | 1006.2 |
| 20260901013010 | 9 | 24 | 3.2 | 8.0 | 0.00 | 0.00 | 0.00 | 93 | 1006.1 |
| 20260901011509 | 9 | 25 | 1.6 | 6.4 | 0.00 | 0.00 | 0.00 | 93 | 1006.0 |
| 20260901010020 | 9 | 19 | 3.2 | 8.0 | 0.00 | 0.00 | 0.00 | 93 | 1005.9 |
| 20260901004517 | 10 | 164 | 0.0 | 3.2 | 0.00 | 0.00 | 0.00 | 92 | 1005.9 |
| 20260901003012 | 10 | 164 | 0.0 | 4.8 | 0.00 | 0.00 | 0.00 | 92 | 1005.9 |
| 20260901001514 | 10 | 165 | 0.0 | 0.0 | 0.00 | 0.00 | 0.00 | 92 | 1005.7 |
| 20260831234510 | 10 | 163 | 0.0 | 0.0 | 0.00 | 0.00 | 0.00 | 91 | 1005.8 |
| 20260831233009 | 10 | 164 | 0.0 | 0.0 | 0.00 | 0.00 | 0.00 | 90 | 1005.8 |
| 20260831231511 | 10 | 164 | 0.0 | 4.8 | 0.00 | 0.00 | 0.00 | 89 | 1005.7 |
| 20260831224509 | 11 | 165 | 0.0 | 0.0 | 0.00 | 0.00 | 0.00 | 88 | 1005.7 |
| 20260831223010 | 11 | 164 | 0.0 | 0.0 | 0.00 | 0.00 | 0.00 | 87 | 1005.6 |
| 20260831221509 | 11 | 164 | 0.0 | 0.0 | 0.00 | 0.00 | 0.00 | 86 | 1005.7 |
| 20260831220010 | 12 | 164 | 0.0 | 0.0 | 0.00 | 0.00 | 0.00 | 85 | 1005.7 |
| 20260831214510 | 12 | 165 | 0.0 | 0.0 | 0.00 | 0.00 | 0.00 | 84 | 1005.7 |
| 20260831213009 | 12 | 164 | 0.0 | 0.0 | 0.00 | 0.00 | 0.00 | 82 | 1005.5 |
| 20260831211510 | 12 | 164 | 0.0 | 0.0 | 0.00 | 0.00 | 0.00 | 81 | 1005.5 |
| 20260831210024 | 13 | 164 | 0.0 | 0.0 | 0.00 | 0.00 | 0.00 | 80 | 1005.4 |
| 20260831204509 | 13 | 164 | 0.0 | 0.0 | 0.00 | 0.00 | 0.00 | 79 | 1005.3 |
| 20260831203011 | 14 | 165 | 0.0 | 0.0 | 0.00 | 0.00 | 0.00 | 77 | 1005.2 |
| 20260831201510 | 14 | 164 | 0.0 | 0.0 | 0.00 | 0.00 | 0.00 | 74 | 1005.0 |
| 20260831200010 | 15 | 163 | 0.0 | 0.0 | 0.00 | 0.00 | 0.00 | 71 | 1005.0 |
| 20260831194509 | 15 | 163 | 0.0 | 3.2 | 0.00 | 0.00 | 0.00 | 69 | 1004.8 |
| 20260831193024 | 16 | 163 | 0.0 | 3.2 | 0.00 | 0.00 | 0.00 | 67 | 1004.6 |
| 20260831191511 | 16 | 163 | 0.0 | 4.8 | 0.00 | 0.00 | 0.00 | 65 | 1004.5 |